HRT1 LTBU-ENZV

Flight info

Callsign HRT1
Flight time 3h 43m
Altitude 38000
Route AFGA1M AFGAR UY520 VADEN DCT BULEN DCT IRLOX DCT KARIL DCT LENOV L623 ADVAB L619 VABAT DCT BINKA M602 OLPIB M725 AAL L621 LAGUM DCT RIVEX RIVE2Q
Aircraft A21N/M-SDE3FGHIRWY/LB1

Departure

Time 2026-04-12 02:40
Airport Tekirdağ Çorlu Airport (LTBU)

Arrival

Time 2026-04-12 06:24
Airport Stavanger Airport, Sola (ENZV)
Time Latitude Longitude Altitude Speed Heading
2026-04-12 02:06 41.12685 27.90700 501 ft 0 kts 139°
2026-04-12 02:26 41.12687 27.90698 502 ft 2 kts 139°
2026-04-12 02:26 41.12698 27.90684 502 ft 2 kts 139°
2026-04-12 02:27 41.12710 27.90671 502 ft 2 kts 139°
2026-04-12 02:27 41.12722 27.90657 502 ft 2 kts 139°
2026-04-12 02:27 41.12730 27.90649 502 ft 2 kts 129°
2026-04-12 02:27 41.12733 27.90629 502 ft 2 kts 75°
2026-04-12 02:28 41.12729 27.90618 502 ft 0 kts 46°
2026-04-12 02:28 41.12741 27.90640 503 ft 4 kts 49°
2026-04-12 02:28 41.12750 27.90652 503 ft 0 kts 49°
2026-04-12 02:35 41.12751 27.90655 503 ft 0 kts 49°
2026-04-12 02:36 41.12759 27.90667 503 ft 2 kts 49°
2026-04-12 02:36 41.12777 27.90693 503 ft 4 kts 49°
2026-04-12 02:36 41.12807 27.90715 504 ft 4 kts 358°
2026-04-12 02:36 41.12837 27.90696 504 ft 4 kts 322°
2026-04-12 02:37 41.12866 27.90664 504 ft 4 kts 320°
2026-04-12 02:37 41.12868 27.90662 504 ft 0 kts 320°
2026-04-12 02:38 41.12869 27.90660 504 ft 0 kts 320°
2026-04-12 02:38 41.12878 27.90651 504 ft 2 kts 320°
2026-04-12 02:38 41.12893 27.90634 504 ft 3 kts 320°
2026-04-12 02:38 41.12916 27.90608 504 ft 5 kts 321°
2026-04-12 02:39 41.12953 27.90591 504 ft 6 kts
2026-04-12 02:39 41.12993 27.90625 504 ft 7 kts 48°
2026-04-12 02:39 41.13076 27.90750 507 ft 45 kts 49°
2026-04-12 02:39 41.13464 27.91341 531 ft 120 kts 49°
2026-04-12 02:40 41.14144 27.92382 811 ft 158 kts 50°
2026-04-12 02:40 41.14890 27.93532 1542 ft 166 kts 50°
2026-04-12 02:40 41.15664 27.94719 2398 ft 171 kts 49°
2026-04-12 02:40 41.16465 27.95938 3143 ft 182 kts 49°
2026-04-12 02:41 41.17363 27.97293 3806 ft 199 kts 49°
2026-04-12 02:41 41.18330 27.98747 4396 ft 220 kts 49°
2026-04-12 02:41 41.19405 28.00365 4950 ft 245 kts 49°
2026-04-12 02:41 41.20714 28.01870 5757 ft 256 kts 29°
2026-04-12 02:42 41.22434 28.02409 6557 ft 267 kts 355°
2026-04-12 02:42 41.24183 28.01476 7289 ft 279 kts 321°
2026-04-12 02:42 41.25600 27.99628 8231 ft 283 kts 316°
2026-04-12 02:43 41.28733 27.96210 10098 ft 290 kts 323°
2026-04-12 02:43 41.30416 27.94584 10879 ft 298 kts 323°
2026-04-12 02:43 41.32182 27.92907 11365 ft 316 kts 323°
2026-04-12 02:43 41.34041 27.91143 11813 ft 335 kts 323°
2026-04-12 02:44 41.35981 27.89299 12429 ft 346 kts 323°
2026-04-12 02:44 41.37936 27.87439 13292 ft 348 kts 323°
2026-04-12 02:44 41.39438 27.86009 13960 ft 349 kts 323°
2026-04-12 02:44 41.41402 27.84136 14787 ft 352 kts 323°
2026-04-12 02:45 41.43408 27.82225 15580 ft 354 kts 323°
2026-04-12 02:45 41.45415 27.80312 16301 ft 359 kts 324°
2026-04-12 02:45 41.47464 27.78368 17018 ft 362 kts 324°
2026-04-12 02:45 41.49538 27.76401 17747 ft 365 kts 324°
2026-04-12 02:46 41.51615 27.74428 18436 ft 368 kts 324°
2026-04-12 02:46 41.53699 27.72447 19093 ft 372 kts 324°
2026-04-12 02:46 41.55807 27.70441 19735 ft 375 kts 324°
2026-04-12 02:46 41.57947 27.68401 20363 ft 379 kts 324°
2026-04-12 02:47 41.60102 27.66345 20970 ft 380 kts 324°
2026-04-12 02:47 41.62322 27.64226 21585 ft 383 kts 324°
2026-04-12 02:47 41.64475 27.62169 22191 ft 385 kts 324°
2026-04-12 02:47 41.66676 27.60064 22789 ft 386 kts 324°
2026-04-12 02:48 41.68906 27.57929 23368 ft 387 kts 324°
2026-04-12 02:48 41.71091 27.55836 23920 ft 389 kts 324°
2026-04-12 02:48 41.73286 27.53732 24457 ft 390 kts 324°
2026-04-12 02:48 41.75491 27.51617 24976 ft 390 kts 324°
2026-04-12 02:49 41.77719 27.49476 25515 ft 391 kts 324°
2026-04-12 02:49 41.80000 27.47284 26060 ft 391 kts 324°
2026-04-12 02:49 41.82276 27.45094 26586 ft 390 kts 324°
2026-04-12 02:49 41.84551 27.42906 27095 ft 390 kts 324°
2026-04-12 02:50 41.86812 27.40710 27577 ft 389 kts 325°
2026-04-12 02:50 41.89030 27.38580 28066 ft 387 kts 324°
2026-04-12 02:50 41.91216 27.36483 28539 ft 385 kts 324°
2026-04-12 02:50 41.93404 27.34353 29022 ft 383 kts 323°
2026-04-12 02:51 41.95536 27.32298 29569 ft 378 kts 323°
2026-04-12 02:51 41.97646 27.30249 30211 ft 372 kts 323°
2026-04-12 02:51 41.99744 27.28225 30839 ft 365 kts 322°
2026-04-12 02:51 42.01770 27.26250 31437 ft 359 kts 323°
2026-04-12 02:52 42.03805 27.24275 32008 ft 354 kts 322°
2026-04-12 02:52 42.05815 27.22359 32503 ft 352 kts 324°
2026-04-12 02:52 42.07896 27.20551 32993 ft 349 kts 326°
2026-04-12 02:52 42.09946 27.18879 33459 ft 346 kts 326°
2026-04-12 02:53 42.12015 27.17204 33919 ft 344 kts 326°
2026-04-12 02:53 42.14069 27.15542 34351 ft 341 kts 326°
2026-04-12 02:53 42.18129 27.12257 35136 ft 338 kts 326°
2026-04-12 02:54 42.20143 27.10627 35471 ft 337 kts 326°
2026-04-12 02:54 42.22172 27.08983 35770 ft 336 kts 326°
2026-04-12 02:54 42.24194 27.07344 36052 ft 336 kts 326°
2026-04-12 02:54 42.26207 27.05711 36308 ft 336 kts 326°
2026-04-12 02:55 42.28223 27.04073 36511 ft 337 kts 326°
2026-04-12 02:55 42.30231 27.02442 36674 ft 340 kts 326°
2026-04-12 02:55 42.32260 27.00793 36828 ft 342 kts 326°
2026-04-12 02:55 42.34331 26.99109 36973 ft 344 kts 326°
2026-04-12 02:56 42.36386 26.97437 37121 ft 345 kts 326°
2026-04-12 02:56 42.38436 26.95769 37275 ft 346 kts 326°
2026-04-12 02:56 42.40512 26.94077 37429 ft 347 kts 326°
2026-04-12 02:56 42.42591 26.92383 37573 ft 348 kts 326°
2026-04-12 02:57 42.44675 26.90683 37706 ft 350 kts 326°
2026-04-12 02:57 42.46757 26.88982 37832 ft 351 kts 326°
2026-04-12 02:57 42.48864 26.87261 37955 ft 352 kts 326°
2026-04-12 02:57 42.50974 26.85536 38072 ft 353 kts 326°
2026-04-12 02:58 42.55213 26.82065 38165 ft 356 kts 326°
2026-04-12 02:58 42.59439 26.78600 38167 ft 356 kts 326°
2026-04-12 02:59 42.63688 26.75113 38158 ft 356 kts 326°
2026-04-12 02:59 42.67973 26.71588 38147 ft 356 kts 326°
2026-04-12 03:00 42.72212 26.68098 38135 ft 356 kts 326°
2026-04-12 03:00 42.76442 26.64609 38128 ft 356 kts 326°
2026-04-12 03:01 42.80722 26.61071 38124 ft 356 kts 327°
2026-04-12 03:01 42.84992 26.57537 38117 ft 356 kts 327°
2026-04-12 03:02 42.89227 26.54025 38104 ft 356 kts 327°
2026-04-12 03:02 42.93496 26.50479 38100 ft 356 kts 327°
2026-04-12 03:03 42.97771 26.46923 38111 ft 356 kts 327°
2026-04-12 03:03 43.02032 26.43370 38118 ft 357 kts 327°
2026-04-12 03:04 43.06320 26.39790 38121 ft 357 kts 327°
2026-04-12 03:04 43.10590 26.36219 38123 ft 358 kts 327°
2026-04-12 03:05 43.14842 26.32656 38122 ft 358 kts 326°
2026-04-12 03:05 43.19098 26.29086 38122 ft 358 kts 326°
2026-04-12 03:06 43.23392 26.25481 38124 ft 358 kts 326°
2026-04-12 03:06 43.27658 26.21894 38128 ft 358 kts 326°
2026-04-12 03:07 43.31969 26.18263 38130 ft 359 kts 326°
2026-04-12 03:07 43.36237 26.14659 38132 ft 359 kts 326°
2026-04-12 03:08 43.40492 26.11059 38133 ft 360 kts 326°
2026-04-12 03:08 43.44790 26.07418 38135 ft 360 kts 326°
2026-04-12 03:09 43.49049 26.03803 38136 ft 360 kts 326°
2026-04-12 03:09 43.53330 26.00163 38137 ft 360 kts 326°
2026-04-12 03:10 43.57587 25.96538 38139 ft 360 kts 326°
2026-04-12 03:10 43.61883 25.92872 38155 ft 360 kts 326°
2026-04-12 03:11 43.66143 25.89231 38168 ft 360 kts 326°
2026-04-12 03:11 43.70421 25.85568 38155 ft 359 kts 326°
2026-04-12 03:12 43.74688 25.81909 38146 ft 359 kts 326°
2026-04-12 03:12 43.78968 25.78319 38152 ft 359 kts 327°
2026-04-12 03:13 43.83227 25.74769 38155 ft 359 kts 327°
2026-04-12 03:13 43.87521 25.71180 38158 ft 359 kts 327°
2026-04-12 03:14 43.91791 25.67605 38159 ft 359 kts 327°
2026-04-12 03:14 43.96094 25.63994 38161 ft 359 kts 327°
2026-04-12 03:15 44.00436 25.60344 38160 ft 359 kts 327°
2026-04-12 03:15 44.04736 25.56721 38149 ft 360 kts 327°
2026-04-12 03:16 44.09006 25.53117 38144 ft 360 kts 327°
2026-04-12 03:16 44.13337 25.49456 38156 ft 361 kts 327°
2026-04-12 03:17 44.17761 25.45711 38160 ft 361 kts 327°
2026-04-12 03:17 44.22121 25.42012 38162 ft 361 kts 327°
2026-04-12 03:18 44.26473 25.38313 38162 ft 361 kts 327°
2026-04-12 03:18 44.30808 25.34623 38165 ft 361 kts 326°
2026-04-12 03:19 44.35220 25.30859 38164 ft 361 kts 326°
2026-04-12 03:19 44.39661 25.27066 38163 ft 361 kts 326°
2026-04-12 03:20 44.44046 25.23314 38161 ft 361 kts 326°
2026-04-12 03:20 44.48373 25.19603 38159 ft 361 kts 326°
2026-04-12 03:21 44.52626 25.15950 38159 ft 361 kts 326°
2026-04-12 03:21 44.56955 25.12225 38158 ft 361 kts 326°
2026-04-12 03:22 44.61295 25.08485 38156 ft 361 kts 326°
2026-04-12 03:22 44.65671 25.04709 38186 ft 362 kts 326°
2026-04-12 03:23 44.70070 25.00906 38195 ft 363 kts 326°
2026-04-12 03:23 44.74461 24.97099 38154 ft 364 kts 326°
2026-04-12 03:24 44.78881 24.93259 38139 ft 364 kts 326°
2026-04-12 03:24 44.83286 24.89428 38137 ft 364 kts 326°
2026-04-12 03:25 44.87763 24.85527 38139 ft 364 kts 326°
2026-04-12 03:25 44.92165 24.81684 38143 ft 365 kts 326°
2026-04-12 03:26 44.96550 24.77850 38142 ft 365 kts 326°
2026-04-12 03:26 45.00920 24.74021 38144 ft 365 kts 326°
2026-04-12 03:27 45.05274 24.70200 38146 ft 365 kts 326°
2026-04-12 03:27 45.09662 24.66342 38145 ft 365 kts 326°
2026-04-12 03:28 45.13992 24.62525 38143 ft 364 kts 326°
2026-04-12 03:28 45.17599 24.59348 38139 ft 364 kts 326°
2026-04-12 03:29 45.22678 24.54862 38135 ft 364 kts 326°
2026-04-12 03:29 45.26952 24.51077 38131 ft 363 kts 326°
2026-04-12 03:30 45.31251 24.47262 38123 ft 363 kts 326°
2026-04-12 03:30 45.35529 24.43459 38115 ft 363 kts 326°
2026-04-12 03:31 45.39854 24.39608 38073 ft 363 kts 326°
2026-04-12 03:31 45.44135 24.35788 38039 ft 363 kts 326°
2026-04-12 03:32 45.48383 24.31989 38043 ft 362 kts 326°
2026-04-12 03:32 45.52743 24.28084 38083 ft 362 kts 326°
2026-04-12 03:33 45.57024 24.24242 38109 ft 361 kts 326°
2026-04-12 03:33 45.61315 24.20383 38124 ft 361 kts 326°
2026-04-12 03:34 45.65677 24.16748 38127 ft 361 kts 329°
2026-04-12 03:34 45.70138 24.13297 38126 ft 361 kts 329°
2026-04-12 03:35 45.74577 24.09862 38130 ft 360 kts 329°
2026-04-12 03:35 45.79028 24.06412 38135 ft 360 kts 329°
2026-04-12 03:36 45.83417 24.03004 38137 ft 360 kts 329°
2026-04-12 03:36 45.87846 23.99559 38138 ft 360 kts 329°
2026-04-12 03:37 45.92299 23.96089 38140 ft 359 kts 329°
2026-04-12 03:37 45.96795 23.92579 38142 ft 359 kts 329°
2026-04-12 03:38 46.01201 23.89133 38146 ft 359 kts 329°
2026-04-12 03:38 46.05617 23.85672 38149 ft 359 kts 329°
2026-04-12 03:39 46.10027 23.82210 38152 ft 359 kts 329°
2026-04-12 03:39 46.14437 23.78742 38157 ft 359 kts 329°
2026-04-12 03:40 46.18838 23.75275 38162 ft 359 kts 329°
2026-04-12 03:40 46.23247 23.71793 38160 ft 360 kts 329°
2026-04-12 03:41 46.27683 23.68284 38152 ft 360 kts 329°
2026-04-12 03:41 46.32169 23.64729 38143 ft 361 kts 329°
2026-04-12 03:42 46.36613 23.61200 38134 ft 361 kts 329°
2026-04-12 03:42 46.41115 23.57618 38126 ft 362 kts 329°
2026-04-12 03:43 46.45654 23.54002 38119 ft 362 kts 329°
2026-04-12 03:43 46.50231 23.50349 38114 ft 363 kts 329°
2026-04-12 03:44 46.54892 23.46620 38112 ft 363 kts 329°
2026-04-12 03:44 46.59887 23.42616 38115 ft 364 kts 329°
2026-04-12 03:45 46.63899 23.39395 38119 ft 365 kts 329°
2026-04-12 03:45 46.69369 23.34992 38122 ft 366 kts 329°
2026-04-12 03:46 46.73978 23.31274 38124 ft 366 kts 329°
2026-04-12 03:46 46.78693 23.27463 38125 ft 367 kts 329°
2026-04-12 03:47 46.83435 23.23626 38126 ft 368 kts 329°
2026-04-12 03:47 46.88162 23.19792 38130 ft 369 kts 329°
2026-04-12 03:48 46.92071 23.16615 38138 ft 369 kts 329°
2026-04-12 03:48 46.97657 23.12065 38148 ft 370 kts 329°
2026-04-12 03:49 47.02402 23.08191 38155 ft 370 kts 329°
2026-04-12 03:49 47.07164 23.04295 38157 ft 371 kts 329°
2026-04-12 03:50 47.11068 23.01097 38160 ft 371 kts 329°
2026-04-12 03:50 47.16594 22.96561 38158 ft 371 kts 329°
2026-04-12 03:51 47.21354 22.92642 38150 ft 372 kts 329°
2026-04-12 03:51 47.26108 22.88717 38142 ft 372 kts 329°
2026-04-12 03:52 47.30801 22.84838 38141 ft 372 kts 329°
2026-04-12 03:52 47.35474 22.80967 38146 ft 372 kts 329°
2026-04-12 03:53 47.40166 22.77072 38151 ft 371 kts 329°
2026-04-12 03:53 47.44881 22.73152 38159 ft 371 kts 329°
2026-04-12 03:54 47.49649 22.69178 38164 ft 371 kts 329°
2026-04-12 03:54 47.54382 22.65229 38167 ft 371 kts 329°
2026-04-12 03:55 47.59053 22.61321 38169 ft 371 kts 329°
2026-04-12 03:55 47.63763 22.57372 38170 ft 371 kts 329°
2026-04-12 03:56 47.68554 22.53341 38172 ft 371 kts 329°
2026-04-12 03:56 47.73287 22.49350 38171 ft 370 kts 330°
2026-04-12 03:57 47.77939 22.45433 38170 ft 370 kts 330°
2026-04-12 03:57 47.82585 22.41403 38172 ft 369 kts 328°
2026-04-12 03:58 47.87129 22.37279 38175 ft 369 kts 329°
2026-04-12 03:58 47.91691 22.33180 38177 ft 369 kts 328°
2026-04-12 03:59 47.96271 22.29047 38173 ft 368 kts 328°
2026-04-12 03:59 48.00809 22.24969 38172 ft 368 kts 327°
2026-04-12 04:00 48.05370 22.20825 38170 ft 368 kts 328°
2026-04-12 04:00 48.09931 22.16685 38165 ft 368 kts 328°
2026-04-12 04:01 48.13653 22.13301 38172 ft 368 kts 328°
2026-04-12 04:01 48.18933 22.08497 38180 ft 367 kts 328°
2026-04-12 04:02 48.24978 22.02987 38179 ft 367 kts 328°
2026-04-12 04:03 48.30275 21.98124 38183 ft 368 kts 328°
2026-04-12 04:03 48.34785 21.93977 38192 ft 368 kts 328°
2026-04-12 04:04 48.39297 21.89841 38187 ft 368 kts 328°
2026-04-12 04:04 48.43783 21.85702 38184 ft 368 kts 328°
2026-04-12 04:05 48.48293 21.81551 38179 ft 369 kts 328°
2026-04-12 04:05 48.52801 21.77379 38179 ft 369 kts 328°
2026-04-12 04:06 48.57274 21.73209 38180 ft 370 kts 328°
2026-04-12 04:06 48.61097 21.69671 38178 ft 370 kts 328°
2026-04-12 04:07 48.66367 21.64758 38176 ft 371 kts 328°
2026-04-12 04:07 48.70871 21.60562 38176 ft 371 kts 328°
2026-04-12 04:08 48.75404 21.56319 38176 ft 372 kts 328°
2026-04-12 04:08 48.79958 21.52042 38174 ft 372 kts 329°
2026-04-12 04:09 48.84566 21.47730 38168 ft 373 kts 328°
2026-04-12 04:09 48.89122 21.43442 38168 ft 373 kts 328°
2026-04-12 04:10 48.93651 21.39154 38180 ft 374 kts 329°
2026-04-12 04:10 48.98231 21.34839 38184 ft 375 kts 328°
2026-04-12 04:11 49.02795 21.30511 38186 ft 375 kts 328°
2026-04-12 04:11 49.06615 21.26880 38181 ft 375 kts 328°
2026-04-12 04:12 49.11122 21.22583 38182 ft 375 kts 328°
2026-04-12 04:12 49.16558 21.17401 38170 ft 376 kts 328°
2026-04-12 04:13 49.20441 21.13682 38166 ft 376 kts 328°
2026-04-12 04:13 49.25794 21.08565 38148 ft 376 kts 328°
2026-04-12 04:14 49.30091 21.03993 38133 ft 376 kts 323°
2026-04-12 04:14 49.34195 20.98681 38116 ft 377 kts 318°
2026-04-12 04:15 49.37853 20.92911 38115 ft 378 kts 314°
2026-04-12 04:15 49.41215 20.86687 38124 ft 379 kts 312°
2026-04-12 04:16 49.44595 20.80328 38141 ft 378 kts 312°
2026-04-12 04:16 49.47907 20.74068 38144 ft 378 kts 312°
2026-04-12 04:17 49.51257 20.67712 38150 ft 377 kts 312°
2026-04-12 04:17 49.54555 20.61433 38159 ft 377 kts 312°
2026-04-12 04:18 49.57845 20.55154 38171 ft 377 kts 312°
2026-04-12 04:18 49.61244 20.48648 38188 ft 377 kts 312°
2026-04-12 04:19 49.64012 20.43337 38195 ft 376 kts 312°
2026-04-12 04:19 49.67982 20.35708 38195 ft 376 kts 312°
2026-04-12 04:20 49.71305 20.29299 38192 ft 375 kts 311°
2026-04-12 04:20 49.74617 20.22900 38194 ft 375 kts 311°
2026-04-12 04:21 49.77921 20.16498 38194 ft 374 kts 311°
2026-04-12 04:21 49.81246 20.10042 38195 ft 374 kts 311°
2026-04-12 04:22 49.84531 20.03646 38180 ft 374 kts 311°
2026-04-12 04:22 49.87808 19.97249 38155 ft 373 kts 311°
2026-04-12 04:23 49.91099 19.90811 38141 ft 373 kts 311°
2026-04-12 04:23 49.94332 19.84471 38141 ft 373 kts 311°
2026-04-12 04:24 49.97612 19.78023 38146 ft 373 kts 311°
2026-04-12 04:24 50.00879 19.71585 38157 ft 373 kts 311°
2026-04-12 04:25 50.03547 19.66316 38160 ft 373 kts 311°
2026-04-12 04:25 50.06742 19.59990 38157 ft 374 kts 311°
2026-04-12 04:26 50.10509 19.52513 38149 ft 374 kts 311°
2026-04-12 04:26 50.13803 19.45956 38145 ft 374 kts 311°
2026-04-12 04:27 50.17094 19.39390 38145 ft 374 kts 311°
2026-04-12 04:27 50.19760 19.34059 38146 ft 375 kts 311°
2026-04-12 04:28 50.22964 19.27636 38150 ft 376 kts 311°
2026-04-12 04:28 50.26759 19.20011 38157 ft 377 kts 311°
2026-04-12 04:29 50.29995 19.13492 38159 ft 378 kts 311°
2026-04-12 04:29 50.33230 19.06959 38160 ft 379 kts 311°
2026-04-12 04:30 50.35968 19.01414 38161 ft 380 kts 310°
2026-04-12 04:30 50.39742 18.93750 38163 ft 381 kts 310°
2026-04-12 04:31 50.42983 18.87151 38166 ft 382 kts 310°
2026-04-12 04:31 50.45697 18.81611 38169 ft 383 kts 310°
2026-04-12 04:32 50.49483 18.73864 38172 ft 384 kts 310°
2026-04-12 04:32 50.52708 18.67245 38173 ft 384 kts 310°
2026-04-12 04:33 50.55455 18.61593 38172 ft 385 kts 310°
2026-04-12 04:33 50.59247 18.53770 38169 ft 385 kts 310°
2026-04-12 04:34 50.62508 18.47023 38167 ft 386 kts 310°
2026-04-12 04:34 50.65745 18.40299 38166 ft 386 kts 309°
2026-04-12 04:35 50.68368 18.34582 38165 ft 387 kts 308°
2026-04-12 04:35 50.72015 18.26549 38166 ft 388 kts 308°
2026-04-12 04:36 50.75223 18.19643 38168 ft 387 kts 309°
2026-04-12 04:36 50.77961 18.13991 38166 ft 388 kts 310°
2026-04-12 04:37 50.81783 18.06063 38167 ft 388 kts 309°
2026-04-12 04:37 50.84502 18.00395 38167 ft 388 kts 309°
2026-04-12 04:38 50.88307 17.92431 38170 ft 387 kts 309°
2026-04-12 04:38 50.91531 17.85664 38182 ft 387 kts 309°
2026-04-12 04:39 50.94796 17.78794 38179 ft 389 kts 309°
2026-04-12 04:39 50.98059 17.71906 38152 ft 390 kts 309°
2026-04-12 04:40 51.01317 17.65004 38136 ft 390 kts 309°
2026-04-12 04:40 51.04022 17.59261 38133 ft 390 kts 309°
2026-04-12 04:41 51.07819 17.51175 38132 ft 390 kts 309°
2026-04-12 04:41 51.11066 17.44263 38134 ft 391 kts 310°
2026-04-12 04:42 51.14723 17.37909 38133 ft 389 kts 318°
2026-04-12 04:42 51.18211 17.33388 38132 ft 389 kts 324°
2026-04-12 04:43 51.26187 17.26687 38133 ft 391 kts 336°
2026-04-12 04:43 51.31233 17.23580 38133 ft 391 kts 337°
2026-04-12 04:44 51.35491 17.20983 38134 ft 391 kts 337°
2026-04-12 04:44 51.40595 17.17864 38135 ft 391 kts 337°
2026-04-12 04:45 51.46490 17.14255 38137 ft 392 kts 337°
2026-04-12 04:45 51.50752 17.11642 38139 ft 392 kts 337°
2026-04-12 04:46 51.56673 17.07995 38141 ft 392 kts 337°
2026-04-12 04:46 51.60913 17.05374 38142 ft 392 kts 337°
2026-04-12 04:47 51.66008 17.02216 38144 ft 392 kts 337°
2026-04-12 04:47 51.71958 16.98523 38145 ft 392 kts 337°
2026-04-12 04:48 51.77056 16.95354 38145 ft 393 kts 337°
2026-04-12 04:48 51.82175 16.92160 38147 ft 393 kts 337°
2026-04-12 04:49 51.87254 16.88981 38147 ft 394 kts 337°
2026-04-12 04:49 51.92367 16.85774 38149 ft 394 kts 337°
2026-04-12 04:50 51.97514 16.82535 38152 ft 395 kts 337°
2026-04-12 04:50 52.02621 16.79313 38155 ft 396 kts 337°
2026-04-12 04:51 52.06903 16.76566 38156 ft 396 kts 335°
2026-04-12 04:51 52.11864 16.72664 38157 ft 395 kts 330°
2026-04-12 04:52 52.17279 16.67140 38155 ft 395 kts 324°
2026-04-12 04:52 52.20914 16.62644 38156 ft 395 kts 322°
2026-04-12 04:53 52.25957 16.56177 38158 ft 395 kts 322°
2026-04-12 04:54 52.32469 16.47778 38160 ft 396 kts 322°
2026-04-12 04:54 52.36769 16.42215 38160 ft 397 kts 322°
2026-04-12 04:55 52.41120 16.36574 38159 ft 397 kts 321°
2026-04-12 04:55 52.44724 16.31888 38159 ft 397 kts 321°
2026-04-12 04:56 52.49059 16.26239 38157 ft 397 kts 321°
2026-04-12 04:56 52.53387 16.20572 38156 ft 397 kts 320°
2026-04-12 04:57 52.58192 16.13520 38154 ft 397 kts 317°
2026-04-12 04:57 52.61578 16.08376 38152 ft 397 kts 317°
2026-04-12 04:58 52.65647 16.02175 38151 ft 397 kts 317°
2026-04-12 04:58 52.70389 15.94930 38157 ft 398 kts 317°
2026-04-12 04:59 52.74442 15.88723 38161 ft 399 kts 317°
2026-04-12 04:59 52.78528 15.82445 38155 ft 400 kts 316°
2026-04-12 05:00 52.81897 15.77254 38151 ft 400 kts 316°
2026-04-12 05:00 52.85962 15.70978 38148 ft 400 kts 316°
2026-04-12 05:01 52.90741 15.63577 38142 ft 400 kts 316°
2026-04-12 05:01 52.94814 15.57253 38135 ft 400 kts 316°
2026-04-12 05:02 52.98869 15.50939 38129 ft 401 kts 316°
2026-04-12 05:02 53.02265 15.45638 38126 ft 401 kts 316°
2026-04-12 05:03 53.06325 15.39285 38125 ft 401 kts 316°
2026-04-12 05:03 53.11072 15.31833 38126 ft 401 kts 316°
2026-04-12 05:04 53.15123 15.25455 38125 ft 401 kts 316°
2026-04-12 05:04 53.19155 15.19093 38122 ft 401 kts 315°
2026-04-12 05:05 53.23207 15.12680 38113 ft 402 kts 315°
2026-04-12 05:05 53.27262 15.06245 38105 ft 402 kts 315°
2026-04-12 05:06 53.30619 15.00902 38103 ft 402 kts 315°
2026-04-12 05:06 53.35352 14.93350 38103 ft 402 kts 315°
2026-04-12 05:07 53.39486 14.86734 38104 ft 402 kts 315°
2026-04-12 05:07 53.43537 14.80233 38106 ft 403 kts 315°
2026-04-12 05:08 53.47573 14.73737 38109 ft 404 kts 315°
2026-04-12 05:08 53.51623 14.67201 38108 ft 404 kts 315°
2026-04-12 05:09 53.54973 14.61781 38107 ft 405 kts 315°
2026-04-12 05:09 53.59712 14.54090 38104 ft 405 kts 315°
2026-04-12 05:10 53.63773 14.47480 38102 ft 406 kts 315°
2026-04-12 05:10 53.67830 14.40854 38101 ft 406 kts 315°
2026-04-12 05:11 53.71216 14.35311 38100 ft 407 kts 314°
2026-04-12 05:11 53.75995 14.27463 38096 ft 408 kts 314°
2026-04-12 05:12 53.80126 14.20884 38093 ft 408 kts 315°
2026-04-12 05:12 53.83599 14.15380 38091 ft 408 kts 315°
2026-04-12 05:13 53.87808 14.08675 38088 ft 409 kts 314°
2026-04-12 05:13 53.92685 14.00864 38085 ft 409 kts 314°
2026-04-12 05:14 53.96164 13.95278 38084 ft 410 kts 314°
2026-04-12 05:14 54.00341 13.88555 38084 ft 409 kts 314°
2026-04-12 05:15 54.05233 13.80704 38083 ft 410 kts 316°
2026-04-12 05:15 54.09709 13.74546 38082 ft 412 kts 321°
2026-04-12 05:16 54.14619 13.69128 38081 ft 414 kts 327°
2026-04-12 05:16 54.19717 13.64575 38080 ft 416 kts 330°
2026-04-12 05:17 54.24025 13.60922 38080 ft 416 kts 330°
2026-04-12 05:17 54.30050 13.55784 38078 ft 417 kts 330°
2026-04-12 05:18 54.34357 13.52093 38077 ft 417 kts 330°
2026-04-12 05:18 54.39562 13.47614 38077 ft 418 kts 330°
2026-04-12 05:19 54.45587 13.42408 38079 ft 419 kts 330°
2026-04-12 05:19 54.50787 13.37904 38080 ft 420 kts 330°
2026-04-12 05:20 54.55874 13.32995 38081 ft 418 kts 324°
2026-04-12 05:20 54.60561 13.27256 38079 ft 416 kts 318°
2026-04-12 05:21 54.64217 13.21762 38075 ft 415 kts 313°
2026-04-12 05:21 54.68854 13.13454 38071 ft 415 kts 310°
2026-04-12 05:22 54.72151 13.07332 38071 ft 416 kts 310°
2026-04-12 05:22 54.76784 12.98723 38074 ft 417 kts 310°
2026-04-12 05:23 54.80085 12.92583 38075 ft 417 kts 310°
2026-04-12 05:23 54.83999 12.85243 38076 ft 417 kts 309°
2026-04-12 05:24 54.87635 12.77281 38075 ft 417 kts 303°
2026-04-12 05:24 54.91179 12.67307 38073 ft 415 kts 296°
2026-04-12 05:25 54.93441 12.59948 38069 ft 415 kts 296°
2026-04-12 05:25 54.96630 12.49665 38059 ft 417 kts 298°
2026-04-12 05:26 54.99344 12.42645 38052 ft 419 kts 305°
2026-04-12 05:26 55.03193 12.35010 38047 ft 423 kts 313°
2026-04-12 05:27 55.08460 12.27286 38050 ft 427 kts 320°
2026-04-12 05:27 55.12432 12.22268 38052 ft 427 kts 320°
2026-04-12 05:28 55.17235 12.16219 38050 ft 428 kts 320°
2026-04-12 05:28 55.22056 12.10102 38047 ft 428 kts 320°
2026-04-12 05:29 55.27718 12.02883 38044 ft 428 kts 320°
2026-04-12 05:29 55.32625 11.96613 38033 ft 429 kts 320°
2026-04-12 05:30 55.36689 11.91413 38028 ft 429 kts 320°
2026-04-12 05:30 55.42394 11.84073 38022 ft 430 kts 319°
2026-04-12 05:31 55.47319 11.77687 38025 ft 432 kts 319°
2026-04-12 05:31 55.51439 11.72336 38026 ft 433 kts 320°
2026-04-12 05:32 55.56328 11.65988 38025 ft 433 kts 320°
2026-04-12 05:32 55.61285 11.59555 38025 ft 434 kts 320°
2026-04-12 05:33 55.67023 11.52042 38025 ft 433 kts 319°
2026-04-12 05:33 55.71891 11.45627 38029 ft 434 kts 319°
2026-04-12 05:34 55.75952 11.40280 38026 ft 434 kts 319°
2026-04-12 05:34 55.80803 11.33832 38028 ft 434 kts 318°
2026-04-12 05:35 55.86435 11.26310 38026 ft 434 kts 318°
2026-04-12 05:35 55.90580 11.20760 38026 ft 435 kts 318°
2026-04-12 05:36 55.95512 11.14128 38022 ft 435 kts 318°
2026-04-12 05:36 56.01192 11.06454 38027 ft 436 kts 318°
2026-04-12 05:37 56.05237 11.00972 38022 ft 437 kts 318°
2026-04-12 05:37 56.10123 10.94323 38016 ft 439 kts 318°
2026-04-12 05:38 56.15192 10.88077 38014 ft 446 kts 324°
2026-04-12 05:38 56.20757 10.82677 38022 ft 451 kts 328°
2026-04-12 05:39 56.26466 10.77516 38022 ft 452 kts 329°
2026-04-12 05:39 56.33012 10.71597 38022 ft 453 kts 329°
2026-04-12 05:40 56.37738 10.67318 38022 ft 454 kts 329°
2026-04-12 05:40 56.44349 10.61285 38024 ft 455 kts 328°
2026-04-12 05:41 56.50028 10.56087 38026 ft 456 kts 328°
2026-04-12 05:41 56.54794 10.51677 38022 ft 456 kts 328°
2026-04-12 05:42 56.60552 10.46338 38020 ft 457 kts 329°
2026-04-12 05:42 56.66229 10.41105 38023 ft 457 kts 329°
2026-04-12 05:43 56.74748 10.33183 38024 ft 457 kts 327°
2026-04-12 05:43 56.81357 10.26979 38016 ft 457 kts 328°
2026-04-12 05:44 56.86069 10.22567 38012 ft 458 kts 328°
2026-04-12 05:44 56.92683 10.16331 38006 ft 458 kts 328°
2026-04-12 05:45 56.97422 10.11858 38002 ft 458 kts 328°
2026-04-12 05:45 57.04015 10.05486 37998 ft 457 kts 325°
2026-04-12 05:46 57.09396 9.98991 37997 ft 453 kts 318°
2026-04-12 05:46 57.13469 9.92735 37999 ft 450 kts 312°
2026-04-12 05:47 57.17841 9.84427 37967 ft 448 kts 306°
2026-04-12 05:47 57.22081 9.75666 37959 ft 451 kts 306°
2026-04-12 05:48 57.27010 9.65447 37988 ft 453 kts 306°
2026-04-12 05:48 57.30535 9.58149 37992 ft 454 kts 306°
2026-04-12 05:49 57.35461 9.47958 37989 ft 454 kts 306°
2026-04-12 05:49 57.39695 9.39089 37989 ft 455 kts 306°
2026-04-12 05:50 57.43193 9.31764 37985 ft 455 kts 306°
2026-04-12 05:50 57.47120 9.22687 37983 ft 451 kts 300°
2026-04-12 05:51 57.50709 9.13068 37977 ft 450 kts 298°
2026-04-12 05:51 57.54238 9.03428 37975 ft 451 kts 298°
2026-04-12 05:52 57.57781 8.93728 37967 ft 452 kts 298°
2026-04-12 05:52 57.61309 8.84044 37964 ft 453 kts 298°
2026-04-12 05:53 57.64854 8.74279 37956 ft 454 kts 298°
2026-04-12 05:53 57.68975 8.62878 37951 ft 456 kts 298°
2026-04-12 05:54 57.71925 8.54687 37945 ft 457 kts 298°
2026-04-12 05:54 57.75481 8.44772 37941 ft 459 kts 298°
2026-04-12 05:55 57.79057 8.34760 37939 ft 461 kts 297°
2026-04-12 05:55 57.82619 8.24750 37933 ft 462 kts 297°
2026-04-12 05:56 57.84404 8.19713 37728 ft 462 kts 297°
2026-04-12 05:56 57.86190 8.14672 37506 ft 460 kts 297°
2026-04-12 05:56 57.87999 8.09553 37240 ft 458 kts 297°
2026-04-12 05:56 57.89751 8.04583 36860 ft 457 kts 297°
2026-04-12 05:57 57.91527 7.99524 36309 ft 460 kts 297°
2026-04-12 05:57 57.93277 7.94525 35673 ft 462 kts 297°
2026-04-12 05:57 57.95064 7.89405 34976 ft 467 kts 297°
2026-04-12 05:57 57.96877 7.84202 34237 ft 473 kts 297°
2026-04-12 05:58 57.98715 7.78922 33447 ft 478 kts 297°
2026-04-12 05:58 58.01148 7.71917 32403 ft 482 kts 297°
2026-04-12 05:58 58.03007 7.66559 31594 ft 484 kts 297°
2026-04-12 05:58 58.04839 7.61289 30732 ft 486 kts 297°
2026-04-12 05:59 58.06078 7.57694 30135 ft 486 kts 296°
2026-04-12 05:59 58.08527 7.50598 28986 ft 484 kts 296°
2026-04-12 05:59 58.09750 7.47038 28419 ft 483 kts 296°
2026-04-12 05:59 58.12158 7.40017 27264 ft 478 kts 295°
2026-04-12 06:00 58.13364 7.36488 26808 ft 471 kts 296°
2026-04-12 06:00 58.15721 7.29574 25934 ft 459 kts 295°
2026-04-12 06:00 58.17468 7.24437 25281 ft 452 kts 295°
2026-04-12 06:00 58.18622 7.21027 24877 ft 453 kts 296°
2026-04-12 06:01 58.20344 7.15941 24318 ft 451 kts 296°
2026-04-12 06:01 58.22601 7.09272 23534 ft 447 kts 296°
2026-04-12 06:01 58.23731 7.05924 23130 ft 446 kts 296°
2026-04-12 06:01 58.25422 7.00910 22519 ft 444 kts 296°
2026-04-12 06:02 58.27122 6.95864 21909 ft 442 kts 296°
2026-04-12 06:02 58.29323 6.89312 21121 ft 440 kts 296°
2026-04-12 06:02 58.30427 6.86019 20727 ft 439 kts 296°
2026-04-12 06:02 58.32059 6.81141 20144 ft 435 kts 296°
2026-04-12 06:03 58.33675 6.76300 19567 ft 433 kts 296°
2026-04-12 06:03 58.35289 6.71451 18994 ft 430 kts 296°
2026-04-12 06:03 58.37414 6.65050 18237 ft 427 kts 296°
2026-04-12 06:03 58.38981 6.60319 17676 ft 423 kts 296°
2026-04-12 06:04 58.40074 6.57013 17283 ft 421 kts 295°
2026-04-12 06:04 58.42017 6.50420 16530 ft 412 kts 289°
2026-04-12 06:04 58.43216 6.45527 15975 ft 406 kts 287°
2026-04-12 06:04 58.43977 6.42254 15610 ft 403 kts 286°
2026-04-12 06:05 58.45477 6.35699 14878 ft 398 kts 287°
2026-04-12 06:05 58.46583 6.30862 14340 ft 392 kts 286°
2026-04-12 06:05 58.47660 6.26164 13817 ft 389 kts 286°
2026-04-12 06:05 58.48739 6.21456 13302 ft 383 kts 287°
2026-04-12 06:06 58.49810 6.16784 12789 ft 380 kts 287°
2026-04-12 06:06 58.50862 6.12175 12280 ft 376 kts 287°
2026-04-12 06:06 58.51569 6.09075 11932 ft 373 kts 287°
2026-04-12 06:06 58.52435 6.05255 11508 ft 370 kts 287°
2026-04-12 06:07 58.53444 6.00814 11013 ft 365 kts 288°
2026-04-12 06:07 58.54454 5.96376 10518 ft 360 kts 288°
2026-04-12 06:07 58.55448 5.92009 10088 ft 353 kts 288°
2026-04-12 06:07 58.56412 5.87776 9776 ft 341 kts 289°
2026-04-12 06:08 58.57357 5.83655 9770 ft 318 kts 289°
2026-04-12 06:08 58.58505 5.78607 9785 ft 300 kts 289°
2026-04-12 06:08 58.59070 5.76085 9796 ft 299 kts 289°
2026-04-12 06:08 58.60170 5.71149 9827 ft 297 kts 289°
2026-04-12 06:09 58.60709 5.68741 9839 ft 297 kts 289°
2026-04-12 06:09 58.61523 5.65105 9848 ft 297 kts 289°
2026-04-12 06:09 58.62345 5.61426 9854 ft 297 kts 289°
2026-04-12 06:09 58.63421 5.56590 9858 ft 298 kts 289°
2026-04-12 06:10 58.63972 5.54128 9859 ft 298 kts 289°
2026-04-12 06:10 58.64788 5.50460 9861 ft 298 kts 289°
2026-04-12 06:10 58.65876 5.45568 9859 ft 292 kts 289°
2026-04-12 06:10 58.66396 5.43241 9852 ft 280 kts 289°
2026-04-12 06:11 58.67140 5.39913 9846 ft 265 kts 289°
2026-04-12 06:11 58.67868 5.36612 9852 ft 265 kts 288°
2026-04-12 06:11 58.68581 5.33337 9857 ft 265 kts 288°
2026-04-12 06:11 58.69303 5.29966 9857 ft 264 kts 284°
2026-04-12 06:12 58.69819 5.26516 9859 ft 261 kts 276°
2026-04-12 06:12 58.70129 5.23039 9861 ft 259 kts 273°
2026-04-12 06:12 58.70399 5.19556 9859 ft 260 kts 275°
2026-04-12 06:12 58.71166 5.15043 9518 ft 269 kts 291°
2026-04-12 06:13 58.71748 5.12870 9286 ft 269 kts 294°
2026-04-12 06:13 58.72999 5.08694 8844 ft 266 kts 300°
2026-04-12 06:13 58.73776 5.06805 8630 ft 267 kts 309°
2026-04-12 06:13 58.75135 5.04335 8324 ft 266 kts 315°
2026-04-12 06:14 58.76559 5.01968 8022 ft 263 kts 317°
2026-04-12 06:14 58.78110 4.99895 7717 ft 262 kts 330°
2026-04-12 06:14 58.79839 4.98426 7423 ft 259 kts 338°
2026-04-12 06:14 58.81599 4.97159 7132 ft 257 kts 339°
2026-04-12 06:15 58.83952 4.96119 6754 ft 254 kts 358°
2026-04-12 06:15 58.85165 4.96050 6575 ft 253 kts
2026-04-12 06:15 58.87498 4.96518 6167 ft 246 kts 29°
2026-04-12 06:15 58.88443 4.97754 5982 ft 235 kts 54°
2026-04-12 06:16 58.89243 5.01426 5614 ft 213 kts 97°
2026-04-12 06:16 58.89125 5.03296 5444 ft 206 kts 110°
2026-04-12 06:16 58.88772 5.06009 5186 ft 205 kts 110°
2026-04-12 06:16 58.88316 5.09631 4834 ft 203 kts 109°
2026-04-12 06:17 58.88105 5.11407 4662 ft 203 kts 108°
2026-04-12 06:17 58.87793 5.14101 4401 ft 201 kts 108°
2026-04-12 06:17 58.87389 5.17651 4056 ft 199 kts 107°
2026-04-12 06:17 58.87192 5.19402 3886 ft 199 kts 107°
2026-04-12 06:18 58.86892 5.22046 3628 ft 198 kts 107°
2026-04-12 06:18 58.86589 5.24717 3363 ft 197 kts 105°
2026-04-12 06:18 58.86654 5.27393 3123 ft 205 kts 73°
2026-04-12 06:18 58.87548 5.29573 3096 ft 205 kts 44°
2026-04-12 06:19 58.88731 5.31219 3080 ft 206 kts 42°
2026-04-12 06:19 58.90250 5.33281 3040 ft 187 kts 43°
2026-04-12 06:19 58.90944 5.34244 2929 ft 179 kts 47°
2026-04-12 06:19 58.91526 5.36115 2682 ft 153 kts 88°
2026-04-12 06:20 58.91464 5.38091 2474 ft 138 kts 105°
2026-04-12 06:20 58.91272 5.39860 2303 ft 128 kts 108°
2026-04-12 06:20 58.91052 5.41555 2126 ft 127 kts 109°
2026-04-12 06:20 58.90815 5.43203 1951 ft 127 kts 110°
2026-04-12 06:21 58.90567 5.44860 1769 ft 127 kts 110°
2026-04-12 06:21 58.90316 5.46498 1605 ft 127 kts 110°
2026-04-12 06:21 58.90072 5.48098 1421 ft 125 kts 110°
2026-04-12 06:21 58.89735 5.50262 1169 ft 124 kts 109°
2026-04-12 06:22 58.89585 5.51342 1061 ft 124 kts 108°
2026-04-12 06:22 58.89378 5.52985 876 ft 124 kts 108°
2026-04-12 06:22 58.89152 5.54611 778 ft 124 kts 109°
2026-04-12 06:22 58.88789 5.56700 526 ft 123 kts 111°
2026-04-12 06:23 58.88613 5.57772 440 ft 123 kts 109°
2026-04-12 06:23 58.88384 5.59359 252 ft 121 kts 112°
2026-04-12 06:23 58.88116 5.60884 59 ft 116 kts 108°
2026-04-12 06:23 58.87851 5.62628 21 ft 72 kts 105°
2026-04-12 06:24 58.87781 5.63100 24 ft 39 kts 105°
2026-04-12 06:24 58.87720 5.63496 25 ft 21 kts 106°
2026-04-12 06:24 58.87703 5.63728 27 ft 13 kts 53°
2026-04-12 06:24 58.87793 5.63776 27 ft 14 kts
2026-04-12 06:25 58.87926 5.63773 28 ft 14 kts 358°
2026-04-12 06:25 58.87991 5.63771 29 ft 13 kts 359°
2026-04-12 06:25 58.88089 5.63768 29 ft 14 kts 358°
2026-04-12 06:25 58.88190 5.63765 29 ft 14 kts 359°
2026-04-12 06:26 58.88334 5.63762 28 ft 16 kts 359°
2026-04-12 06:26 58.88412 5.63759 27 ft 16 kts 359°
2026-04-12 06:26 58.88530 5.63755 28 ft 16 kts 358°
2026-04-12 06:26 58.88646 5.63751 26 ft 12 kts 357°
2026-04-12 06:27 58.88708 5.63658 27 ft 12 kts 282°
2026-04-12 06:27 58.88707 5.63488 27 ft 11 kts 252°
2026-04-12 06:27 58.88649 5.63421 30 ft 9 kts 183°
2026-04-12 06:27 58.88584 5.63422 31 ft 9 kts 178°
2026-04-12 06:28 58.88516 5.63425 31 ft 10 kts 178°
2026-04-12 06:28 58.88450 5.63360 31 ft 11 kts 242°
2026-04-12 06:28 58.88437 5.63237 31 ft 8 kts 295°
2026-04-12 06:28 58.88470 5.63178 31 ft 2 kts 325°
2026-04-12 06:29 58.88477 5.63169 31 ft 0 kts 325°